Location: Sungai Apap
(2.6167°N, 113.3833°E)
Time: 14:51:59
(UTC+00:00)

H-2A R/B - Pass Details

Date: 25 May 2024
Orbit: 732 x 832 km, 98.2° (Epoch: 14 June)

Event Time Altitude Azimuth Distance (km) Brightness Sun altitude
Rises 19:51:17 0° 28° (NNE) 3,353 6.0 -33.9°
Reaches altitude 10° 19:53:50 10° 37° (NE) 2,414 5.3 -33.3°
Maximum altitude 19:58:40 35° 102° (ESE) 1,283 3.4 -32.3°
Enters shadow 19:59:42 32° 126° (SE) 1,351 3.4 -32.0°
